DateTimeUTC,F1_A11,F1_S11,BsB_S11,BsG_S11,BsR_S11,BbsB_S11,BbsG_S11,BbsR_S11,BaB_A11,BaG_A11,BaR_A11,Tu_S11,T_S11,Uu_S11,U_S11,P_S11,T1_A11
2021-02-20T08:00:00Z,00000200,21000000,,,,,,,0000.20,0000.28,0000.23,17.3,24.6,,00.0,0632.0,31.0
2021-02-20T08:01:00Z,00000200,21000000,,,,,,,0000.01,-000.06,0000.04,17.3,24.6,,00.0,0632.0,31.0
2021-02-20T08:02:00Z,00000200,21000000,,,,,,,0000.41,0000.03,-000.06,17.3,24.6,,00.0,0632.0,31.0
2021-02-20T08:03:00Z,00000200,61000000,,,,,,,-000.28,0000.54,0000.05,17.3,24.6,,00.0,0631.9,31.0
2021-02-20T08:04:00Z,00000200,41000000,0000.00,0000.32,0000.10,-000.05,-000.29,0000.13,0000.24,-000.13,-000.03,17.7,24.5,,00.0,0632.7,31.0
2021-02-20T08:05:00Z,00000200,01000000,-000.39,-000.01,-000.01,-000.08,-000.02,0000.21,-000.10,-000.08,0000.05,17.8,24.5,,00.0,0632.8,31.0
2021-02-20T08:06:00Z,00000200,01000000,0000.09,0000.58,-000.20,-000.27,0000.19,-000.12,0000.13,0000.28,0000.28,17.8,24.5,,00.0,0632.8,31.0
2021-02-20T08:07:00Z,00000200,01000000,0000.02,0000.05,0000.10,0000.20,-000.04,-000.03,0000.14,0000.16,-000.11,17.8,24.5,,00.0,0632.8,31.0
2021-02-20T08:08:00Z,00000200,01000000,-000.28,0000.13,0000.13,0000.03,-000.02,0000.13,-000.03,0000.13,0000.10,17.7,24.5,,00.0,0632.8,31.0
2021-02-20T08:09:00Z,00000200,01000000,-000.10,0000.02,-000.00,-000.18,0000.00,0000.03,-000.12,-000.49,-000.19,17.7,24.4,,00.0,0632.8,31.0
2021-02-20T08:10:00Z,00000200,01000000,0000.05,0000.07,-000.03,0000.05,0000.18,-000.08,0000.12,0000.43,0000.16,17.7,24.4,,00.0,0632.8,31.0
2021-02-20T08:11:00Z,00000200,01000000,0000.29,0000.24,-000.10,-000.28,0000.08,-000.17,-000.31,-000.25,-000.22,17.7,24.4,,00.0,0632.8,31.0
2021-02-20T08:12:00Z,00000200,01000000,-000.20,0000.05,0000.20,0000.05,0000.00,0000.19,0000.57,0000.27,0000.28,17.7,24.4,,00.0,0632.7,31.0
2021-02-20T08:13:00Z,00000200,01000000,-000.10,0000.06,0000.13,-000.05,0000.07,-000.18,-000.32,-000.25,-000.08,17.6,24.4,,00.0,0632.7,31.0
2021-02-20T08:14:00Z,00000200,01000000,-000.09,0000.08,0000.10,0000.24,-000.07,-000.17,0000.09,-000.02,0000.04,17.6,24.4,,00.0,0632.7,31.0
2021-02-20T08:15:00Z,00000200,01000000,0000.73,0000.12,-000.13,0000.09,-000.09,-000.00,0000.03,-000.11,-000.27,17.6,24.4,,00.0,0632.7,31.0
2021-02-20T08:16:00Z,00000200,01000000,-000.09,-000.01,-000.09,0000.12,-000.11,0000.12,0000.07,0000.30,0000.48,17.6,24.3,,00.0,0632.7,31.0
2021-02-20T08:17:00Z,00000200,01000000,0000.07,0000.11,-000.03,0000.23,-000.02,-000.03,0000.28,0000.29,-000.24,17.6,24.3,,00.0,0632.7,31.0
2021-02-20T08:18:00Z,00000200,01000000,-000.10,0000.25,0000.22,-000.18,-000.04,-000.03,-000.09,-000.02,0000.33,17.7,24.4,,00.0,0632.6,31.0
2021-02-20T08:19:00Z,00000200,01000000,-000.39,0000.09,-000.07,-000.04,-000.14,-000.18,0000.28,-000.25,0000.03,17.8,24.4,,00.0,0632.6,31.0
2021-02-20T08:20:00Z,00000200,01000000,-000.16,0000.28,-000.11,-000.17,-000.14,-000.23,-000.00,0000.25,0000.07,17.8,24.4,,00.0,0632.7,31.0
2021-02-20T08:21:00Z,00000200,01000000,0000.14,0000.26,0000.11,-000.21,-000.06,-000.07,-000.03,0000.18,-000.10,17.8,24.5,,00.0,0632.6,31.0
2021-02-20T08:22:00Z,00000200,01000000,-000.17,-000.18,0000.21,0000.08,-000.07,0000.14,-000.15,-000.06,-000.01,17.8,24.4,,00.0,0632.6,31.0
2021-02-20T08:23:00Z,00000200,01000000,-000.20,0000.12,0000.03,-000.06,-000.18,-000.08,0000.13,0000.28,-000.24,17.8,24.4,,00.0,0632.6,31.0
2021-02-20T08:24:00Z,00000200,01000000,-000.28,0000.05,0000.10,0000.06,0000.14,0000.13,-000.05,-000.34,0000.28,17.8,24.4,,00.0,0632.5,31.0
2021-02-20T08:25:00Z,00000200,01000000,-000.45,-000.05,-000.19,0000.11,-000.12,0000.03,0000.26,0000.08,-000.22,17.8,24.4,,00.0,0632.5,31.0
2021-02-20T08:26:00Z,00000200,01000000,-000.65,0000.06,0000.19,-000.15,-000.03,0000.14,-000.41,0000.04,0000.38,17.7,24.4,,00.0,0632.5,31.0
2021-02-20T08:27:00Z,00000200,01000000,0000.21,0000.09,-000.13,0000.21,-000.11,-000.03,0000.39,-000.06,0000.12,17.7,24.4,,00.0,0632.5,31.0
2021-02-20T08:28:00Z,00000200,01000000,-000.49,0000.29,0000.05,0000.11,-000.02,-000.17,-000.15,0000.18,-000.50,17.6,24.4,,00.0,0632.5,31.0
2021-02-20T08:29:00Z,00000200,01000000,-000.59,0000.06,-000.01,-000.10,-000.22,-000.24,0000.14,-000.33,0000.01,17.6,24.3,,00.0,0632.4,31.0
2021-02-20T08:30:00Z,00000200,01000000,-000.58,0000.33,-000.13,0000.27,0000.05,-000.11,-000.41,-000.24,0000.12,17.6,24.3,,00.0,0632.5,31.0
2021-02-20T08:31:00Z,00000200,01000000,0000.07,0000.04,-000.07,-000.04,0000.17,0000.19,0000.18,0000.15,-000.04,17.6,24.3,,00.0,0632.3,31.0
2021-02-20T08:32:00Z,00000200,01000000,-000.10,0000.31,-000.02,0000.14,-000.16,-000.11,0000.34,0000.50,0000.24,17.6,24.3,,00.0,0632.4,31.0
2021-02-20T08:33:00Z,00000200,01000000,-000.10,0000.19,0000.04,0000.02,-000.13,-000.11,0000.04,0000.08,0000.02,17.7,24.4,,00.0,0632.3,31.0
2021-02-20T08:34:00Z,00000200,01000000,-000.08,-000.03,0000.12,0000.02,-000.03,0000.03,-000.03,-000.15,0000.19,17.8,24.4,,00.0,0632.3,31.1
2021-02-20T08:35:00Z,00000200,01000000,-000.04,0000.36,-000.22,0000.11,-000.09,-000.02,-000.17,0000.03,-000.33,17.9,24.4,,00.0,0632.3,31.1
2021-02-20T08:36:00Z,00000200,01000000,0000.26,-000.18,0000.11,-000.33,-000.01,-000.04,0000.17,-000.21,0000.09,17.9,24.5,,00.0,0632.2,31.0
2021-02-20T08:37:00Z,00000200,01000000,0000.05,-000.23,0000.18,0000.59,-000.17,0000.18,0000.23,0000.46,0000.07,17.9,24.5,,00.0,0632.2,31.0
2021-02-20T08:38:00Z,00000200,01000000,-000.32,0000.08,-000.10,0000.10,-000.09,-000.02,-000.34,-000.13,-000.02,17.9,24.5,,00.0,0632.1,31.0
2021-02-20T08:39:00Z,00000200,01000000,-000.32,0000.10,0000.01,-000.37,-000.20,-000.10,0000.32,0000.09,0000.00,17.9,24.4,,00.0,0632.1,31.0
2021-02-20T08:40:00Z,00000200,01000000,0000.27,0000.21,-000.07,0000.12,-000.03,-000.02,-000.04,-000.03,-000.03,17.8,24.4,,00.0,0632.1,31.0
2021-02-20T08:41:00Z,00000200,01000000,0000.03,0000.17,0000.11,-000.18,-000.20,0000.02,0000.22,0000.41,0000.46,17.8,24.4,,00.0,0632.0,31.0
2021-02-20T08:42:00Z,00000200,01000000,-000.18,0000.29,0000.05,-000.04,0000.05,-000.02,-000.32,-000.21,-000.16,17.8,24.4,,00.0,0632.0,31.0
2021-02-20T08:43:00Z,00000200,01000000,0000.03,0000.06,0000.14,0000.56,-000.11,-000.05,0000.01,-000.15,-000.63,17.8,24.4,,00.0,0632.0,31.0
2021-02-20T08:44:00Z,00000200,01000000,0000.38,0000.28,0000.16,-000.33,0000.05,0000.18,0000.08,0000.14,0000.40,17.7,24.4,,00.0,0631.9,31.0
2021-02-20T08:45:00Z,00000200,01000000,-000.38,0000.12,0000.27,0000.20,0000.10,-000.00,-000.32,-000.57,-000.19,17.7,24.4,,00.0,0631.9,31.0
2021-02-20T08:46:00Z,00000200,01000000,-000.10,-000.02,0000.15,0000.35,-000.19,-000.07,0000.27,0000.33,0000.37,17.7,24.4,,00.0,0631.9,31.0
2021-02-20T08:47:00Z,00000200,01000000,-000.35,0000.01,0000.12,-000.07,-000.11,0000.03,-000.05,-000.04,-000.31,17.7,24.3,,00.0,0631.9,31.0
2021-02-20T08:48:00Z,00000200,01000000,-000.29,0000.16,0000.10,0000.31,0000.25,0000.04,0000.08,0000.07,0000.36,17.8,24.4,,00.0,0631.8,31.0
2021-02-20T08:49:00Z,00000200,01000000,-000.11,0000.31,0000.14,-000.28,0000.09,0000.08,-000.09,-000.12,-000.18,17.9,24.4,,00.0,0631.7,31.0
2021-02-20T08:50:00Z,00000200,01000000,-000.06,0000.06,0000.07,-000.07,-000.23,-000.18,0000.08,-000.07,0000.01,17.9,24.5,,00.0,0631.7,31.0
2021-02-20T08:51:00Z,00000200,01000000,-000.29,0000.06,0000.18,-000.06,-000.02,0000.03,0000.28,0000.13,0000.03,18.0,24.5,,00.0,0631.6,31.0
2021-02-20T08:52:00Z,00000200,01000000,-000.08,0000.15,0000.09,0000.02,-000.34,-000.26,-000.36,0000.33,-000.12,17.9,24.5,,00.0,0631.6,31.0
2021-02-20T08:53:00Z,00000200,01000000,0000.05,-000.11,0000.31,0000.00,0000.07,-000.04,-000.06,-000.18,0000.24,17.9,24.5,,00.0,0631.6,31.0
2021-02-20T08:54:00Z,00000200,01000000,-000.08,0000.08,-000.20,0000.23,0000.02,-000.17,0000.02,-000.22,-000.17,17.9,24.5,,00.0,0631.5,31.0
2021-02-20T08:55:00Z,00000200,01000000,0000.10,-000.13,-000.06,-000.10,-000.13,0000.12,0000.06,0000.05,-000.15,17.8,24.4,,00.0,0631.5,31.0
2021-02-20T08:56:00Z,00000200,01000000,-000.19,0000.17,0000.07,0000.20,0000.03,0000.01,0000.13,-000.19,0000.13,17.8,24.4,,00.0,0631.6,31.0
2021-02-20T08:57:00Z,00000200,41000000,,,,,,,-000.21,0000.15,0000.09,17.8,24.5,,00.0,0631.6,31.0
2021-02-20T08:58:00Z,00000200,61000000,,,,,,,0000.09,-000.05,-000.14,17.5,24.5,,00.0,0630.7,31.0
2021-02-20T08:59:00Z,00000200,21000000,,,,,,,-000.32,-000.31,-000.15,17.4,24.6,,00.0,0630.6,31.0
